Anzahl Datensätze: 286
min. Temperatur: 2.6 °C
max. Temperatur: 5.3 °C
max. Windgeschwindigkeit: 4.9 km/h
Niederschlagsumme: 0.8 mm
| Datum |
Zeit |
Temp °C |
Feuchte % |
Taupunkt °C |
Luftdruck hPa |
Wind km/h |
Windrichtung |
Strahlung w/m² |
Niederschlag mm |
|---|---|---|---|---|---|---|---|---|---|
| 25.11.2025 | 00:03 | 4.7 | 92 | 3.5 | 996.5 | 0.9 | S | 0 | 0.0 |
| 25.11.2025 | 00:08 | 4.7 | 92 | 3.5 | 996.5 | 2.2 | SW | 0 | 0.0 |
| 25.11.2025 | 00:13 | 4.7 | 92 | 3.5 | 996.5 | 1.8 | SSO | 0 | 0.0 |
| 25.11.2025 | 00:18 | 4.7 | 92 | 3.5 | 996.5 | 0.9 | SSW | 0 | 0.0 |
| 25.11.2025 | 00:23 | 4.7 | 92 | 3.5 | 996.5 | 0.4 | S | 0 | 0.0 |
| 25.11.2025 | 00:28 | 4.6 | 92 | 3.4 | 996.5 | 0.4 | S | 0 | 0.0 |
| 25.11.2025 | 00:33 | 4.6 | 92 | 3.4 | 996.5 | 1.8 | SSW | 0 | 0.0 |
| 25.11.2025 | 00:38 | 4.6 | 92 | 3.4 | 996.6 | 1.8 | SSO | 0 | 0.0 |
| 25.11.2025 | 00:43 | 4.6 | 92 | 3.4 | 996.7 | 1.8 | SSO | 0 | 0.0 |
| 25.11.2025 | 00:48 | 4.6 | 92 | 3.4 | 996.6 | 1.8 | S | 0 | 0.0 |
| 25.11.2025 | 00:53 | 4.6 | 92 | 3.4 | 996.6 | 1.8 | S | 0 | 0.0 |
| 25.11.2025 | 00:58 | 4.6 | 92 | 3.4 | 996.6 | 0.9 | SSW | 0 | 0.0 |
| 25.11.2025 | 01:03 | 4.6 | 92 | 3.4 | 996.6 | 0.9 | S | 0 | 0.0 |
| 25.11.2025 | 01:08 | 4.6 | 92 | 3.4 | 996.6 | 1.3 | OSO | 0 | 0.0 |
| 25.11.2025 | 01:13 | 4.5 | 92 | 3.3 | 996.6 | 0.4 | SSO | 0 | 0.0 |
| 25.11.2025 | 01:18 | 4.5 | 92 | 3.3 | 996.7 | 0.4 | SSO | 0 | 0.0 |
| 25.11.2025 | 01:23 | 4.5 | 92 | 3.3 | 996.6 | 0.9 | OSO | 0 | 0.0 |
| 25.11.2025 | 01:28 | 4.5 | 92 | 3.3 | 996.7 | 0.9 | SO | 0 | 0.0 |
| 25.11.2025 | 01:33 | 4.5 | 92 | 3.3 | 996.7 | 0.4 | SO | 0 | 0.0 |
| 25.11.2025 | 01:38 | 4.5 | 92 | 3.3 | 996.8 | 0.4 | S | 0 | 0.0 |
| 25.11.2025 | 01:43 | 4.5 | 92 | 3.3 | 996.8 | 0.0 | SSO | 0 | 0.0 |
| 25.11.2025 | 01:48 | 4.5 | 92 | 3.3 | 996.8 | 0.0 | SSO | 0 | 0.0 |
| 25.11.2025 | 01:53 | 4.5 | 92 | 3.3 | 996.8 | 0.0 | SSW | 0 | 0.0 |
| 25.11.2025 | 01:58 | 4.5 | 92 | 3.3 | 996.8 | 0.4 | S | 0 | 0.0 |
| 25.11.2025 | 02:04 | 4.5 | 92 | 3.3 | 996.9 | 0.4 | SW | 0 | 0.0 |
| 25.11.2025 | 02:09 | 4.5 | 92 | 3.3 | 996.9 | 0.4 | S | 0 | 0.0 |
| 25.11.2025 | 02:14 | 4.4 | 92 | 3.2 | 996.9 | 0.4 | S | 0 | 0.0 |
| 25.11.2025 | 02:19 | 4.4 | 92 | 3.2 | 996.9 | 1.8 | SSW | 0 | 0.0 |
| 25.11.2025 | 02:24 | 4.4 | 92 | 3.2 | 997.0 | 0.4 | SSW | 0 | 0.0 |
| 25.11.2025 | 02:29 | 4.4 | 92 | 3.2 | 997.0 | 0.0 | S | 0 | 0.0 |
| 25.11.2025 | 02:34 | 4.4 | 92 | 3.2 | 997.1 | 0.9 | SSO | 0 | 0.0 |
| 25.11.2025 | 02:39 | 4.4 | 92 | 3.2 | 997.1 | 0.0 | S | 0 | 0.0 |
| 25.11.2025 | 02:44 | 4.4 | 92 | 3.2 | 997.1 | 0.9 | SSO | 0 | 0.0 |
| 25.11.2025 | 02:49 | 4.4 | 92 | 3.2 | 997.1 | 0.9 | S | 0 | 0.0 |
| 25.11.2025 | 02:54 | 4.4 | 92 | 3.2 | 997.2 | 0.4 | S | 0 | 0.0 |
| 25.11.2025 | 02:59 | 4.4 | 92 | 3.2 | 997.2 | 0.4 | S | 0 | 0.0 |
| 25.11.2025 | 03:04 | 4.4 | 92 | 3.2 | 997.3 | 0.4 | S | 0 | 0.0 |
| 25.11.2025 | 03:09 | 4.4 | 92 | 3.2 | 997.4 | 0.0 | S | 0 | 0.0 |
| 25.11.2025 | 03:14 | 4.4 | 92 | 3.2 | 997.4 | 0.0 | S | 0 | 0.0 |
| 25.11.2025 | 03:19 | 4.4 | 92 | 3.2 | 997.4 | 0.0 | S | 0 | 0.0 |
| 25.11.2025 | 03:24 | 4.4 | 92 | 3.2 | 997.4 | 0.0 | SO | 0 | 0.0 |
| 25.11.2025 | 03:29 | 4.4 | 92 | 3.2 | 997.4 | 0.4 | SSW | 0 | 0.0 |
| 25.11.2025 | 03:34 | 4.4 | 92 | 3.2 | 997.4 | 0.9 | S | 0 | 0.0 |
| 25.11.2025 | 03:39 | 4.4 | 92 | 3.2 | 997.4 | 0.0 | S | 0 | 0.0 |
| 25.11.2025 | 03:44 | 4.4 | 92 | 3.2 | 997.3 | 0.4 | SSO | 0 | 0.0 |
| 25.11.2025 | 03:49 | 4.4 | 92 | 3.2 | 997.4 | 1.3 | SSW | 0 | 0.0 |
| 25.11.2025 | 03:54 | 4.5 | 92 | 3.3 | 997.3 | 0.0 | S | 0 | 0.0 |
| 25.11.2025 | 03:59 | 4.5 | 92 | 3.3 | 997.3 | 0.0 | S | 0 | 0.0 |
| 25.11.2025 | 04:04 | 4.5 | 92 | 3.3 | 997.3 | 0.4 | S | 0 | 0.0 |
| 25.11.2025 | 04:09 | 4.4 | 92 | 3.2 | 997.4 | 0.4 | S | 0 | 0.0 |
| 25.11.2025 | 04:14 | 4.4 | 92 | 3.2 | 997.4 | 0.4 | S | 0 | 0.0 |
| 25.11.2025 | 04:19 | 4.4 | 92 | 3.2 | 997.4 | 0.4 | S | 0 | 0.0 |
| 25.11.2025 | 04:24 | 4.4 | 92 | 3.2 | 997.4 | 0.0 | S | 0 | 0.0 |
| 25.11.2025 | 04:29 | 4.4 | 92 | 3.2 | 997.5 | 0.0 | S | 0 | 0.0 |
| 25.11.2025 | 04:34 | 4.4 | 92 | 3.2 | 997.5 | 0.0 | S | 0 | 0.0 |
| 25.11.2025 | 04:39 | 4.4 | 92 | 3.2 | 997.5 | 0.0 | S | 0 | 0.0 |
| 25.11.2025 | 04:44 | 4.4 | 92 | 3.2 | 997.6 | 0.0 | S | 0 | 0.0 |
| 25.11.2025 | 04:49 | 4.3 | 92 | 3.1 | 997.7 | 0.0 | S | 0 | 0.0 |
| 25.11.2025 | 04:55 | 4.2 | 92 | 3.0 | 997.7 | 0.4 | S | 0 | 0.0 |
| 25.11.2025 | 05:00 | 4.1 | 92 | 2.9 | 997.7 | 0.0 | S | 0 | 0.0 |
| 25.11.2025 | 05:05 | 4.0 | 92 | 2.8 | 997.8 | 0.0 | S | 0 | 0.0 |
| 25.11.2025 | 05:10 | 4.0 | 92 | 2.8 | 997.8 | 0.0 | S | 0 | 0.0 |
| 25.11.2025 | 05:15 | 4.0 | 92 | 2.8 | 997.8 | 0.0 | S | 0 | 0.0 |
| 25.11.2025 | 05:20 | 4.0 | 92 | 2.8 | 997.9 | 0.0 | S | 0 | 0.0 |
| 25.11.2025 | 05:25 | 4.0 | 92 | 2.8 | 997.9 | 0.0 | S | 0 | 0.0 |
| 25.11.2025 | 05:30 | 4.0 | 92 | 2.8 | 997.9 | 0.0 | S | 0 | 0.0 |
| 25.11.2025 | 05:35 | 4.0 | 92 | 2.8 | 997.9 | 0.0 | S | 0 | 0.0 |
| 25.11.2025 | 05:40 | 4.0 | 92 | 2.8 | 998.0 | 0.0 | S | 0 | 0.0 |
| 25.11.2025 | 05:45 | 4.0 | 92 | 2.8 | 997.9 | 0.0 | S | 0 | 0.0 |
| 25.11.2025 | 05:50 | 4.0 | 92 | 2.8 | 997.9 | 0.0 | S | 0 | 0.0 |
| 25.11.2025 | 05:55 | 4.0 | 92 | 2.8 | 998.0 | 0.0 | S | 0 | 0.0 |
| 25.11.2025 | 06:00 | 3.9 | 92 | 2.7 | 998.0 | 0.0 | S | 0 | 0.0 |
| 25.11.2025 | 06:05 | 4.0 | 92 | 2.8 | 998.1 | 0.0 | S | 0 | 0.0 |
| 25.11.2025 | 06:10 | 3.9 | 92 | 2.7 | 998.1 | 0.0 | S | 0 | 0.0 |
| 25.11.2025 | 06:15 | 4.0 | 92 | 2.8 | 998.2 | 0.0 | S | 0 | 0.0 |
| 25.11.2025 | 06:20 | 4.0 | 92 | 2.8 | 998.3 | 0.0 | S | 0 | 0.0 |
| 25.11.2025 | 06:25 | 4.0 | 92 | 2.8 | 998.3 | 0.0 | S | 0 | 0.0 |
| 25.11.2025 | 06:30 | 4.0 | 92 | 2.8 | 998.4 | 0.0 | S | 0 | 0.0 |
| 25.11.2025 | 06:35 | 4.0 | 92 | 2.8 | 998.4 | 0.0 | S | 0 | 0.0 |
| 25.11.2025 | 06:40 | 4.0 | 92 | 2.8 | 998.4 | 0.0 | S | 0 | 0.0 |
| 25.11.2025 | 06:45 | 4.1 | 92 | 2.9 | 998.5 | 0.0 | S | 0 | 0.0 |
| 25.11.2025 | 06:50 | 4.1 | 92 | 2.9 | 998.6 | 0.0 | S | 0 | 0.0 |
| 25.11.2025 | 06:55 | 4.1 | 92 | 2.9 | 998.7 | 0.0 | S | 0 | 0.0 |
| 25.11.2025 | 07:00 | 4.1 | 92 | 2.9 | 998.7 | 0.0 | S | 0 | 0.0 |
| 25.11.2025 | 07:05 | 4.1 | 92 | 2.9 | 998.7 | 0.0 | S | 0 | 0.0 |
| 25.11.2025 | 07:10 | 4.1 | 92 | 2.9 | 998.8 | 0.0 | S | 0 | 0.0 |
| 25.11.2025 | 07:16 | 4.1 | 92 | 2.9 | 998.9 | 0.0 | S | 0 | 0.0 |
| 25.11.2025 | 07:21 | 4.1 | 92 | 2.9 | 999.0 | 0.0 | S | 0 | 0.0 |
| 25.11.2025 | 07:26 | 4.2 | 92 | 3.0 | 999.0 | 0.0 | S | 0 | 0.2 |
| 25.11.2025 | 07:31 | 4.2 | 92 | 3.0 | 999.1 | 0.0 | S | 0 | 0.2 |
| 25.11.2025 | 07:36 | 4.2 | 92 | 3.0 | 999.2 | 0.0 | S | 0 | 0.2 |
| 25.11.2025 | 07:41 | 4.2 | 92 | 3.0 | 999.2 | 0.4 | S | 0 | 0.2 |
| 25.11.2025 | 07:46 | 4.2 | 92 | 3.0 | 999.3 | 0.0 | S | 0 | 0.2 |
| 25.11.2025 | 07:51 | 4.2 | 92 | 3.0 | 999.4 | 0.0 | S | 0 | 0.2 |
| 25.11.2025 | 07:56 | 4.1 | 92 | 2.9 | 999.5 | 0.0 | S | 0 | 0.4 |
| 25.11.2025 | 08:01 | 4.1 | 92 | 2.9 | 999.6 | 0.0 | S | 0 | 0.4 |
| 25.11.2025 | 08:06 | 4.1 | 92 | 2.9 | 999.6 | 0.0 | S | 0 | 0.4 |
| 25.11.2025 | 08:11 | 4.1 | 92 | 2.9 | 999.7 | 0.0 | S | 0 | 0.4 |
| 25.11.2025 | 08:16 | 4.1 | 92 | 2.9 | 999.8 | 0.0 | S | 0 | 0.4 |
| 25.11.2025 | 08:21 | 4.1 | 92 | 2.9 | 999.9 | 0.0 | S | 0 | 0.4 |
| 25.11.2025 | 08:26 | 4.1 | 92 | 2.9 | 1000.0 | 0.4 | S | 0 | 0.6 |
| 25.11.2025 | 08:31 | 4.1 | 92 | 2.9 | 1000.1 | 0.0 | S | 5 | 0.6 |
| 25.11.2025 | 08:36 | 4.1 | 92 | 2.9 | 1000.2 | 0.0 | S | 7 | 0.6 |
| 25.11.2025 | 08:41 | 4.1 | 92 | 2.9 | 1000.2 | 0.0 | S | 9 | 0.8 |
| 25.11.2025 | 08:46 | 4.1 | 92 | 2.9 | 1000.3 | 0.0 | S | 11 | 0.8 |
| 25.11.2025 | 08:51 | 4.1 | 92 | 2.9 | 1000.5 | 0.0 | S | 16 | 0.8 |
| 25.11.2025 | 08:56 | 4.1 | 92 | 2.9 | 1000.5 | 0.4 | SSW | 18 | 0.8 |
| 25.11.2025 | 09:01 | 4.2 | 92 | 3.0 | 1000.6 | 0.4 | SW | 23 | 0.8 |
| 25.11.2025 | 09:06 | 4.2 | 92 | 3.0 | 1000.6 | 0.0 | SW | 30 | 0.8 |
| 25.11.2025 | 09:11 | 4.2 | 92 | 3.0 | 1000.8 | 0.4 | SW | 25 | 0.8 |
| 25.11.2025 | 09:16 | 4.3 | 92 | 3.1 | 1000.8 | 1.3 | NW | 19 | 0.8 |
| 25.11.2025 | 09:21 | 4.3 | 92 | 3.1 | 1000.9 | 1.3 | NNW | 21 | 0.8 |
| 25.11.2025 | 09:26 | 4.3 | 92 | 3.1 | 1001.0 | 1.3 | NW | 28 | 0.8 |
| 25.11.2025 | 09:31 | 4.3 | 92 | 3.1 | 1001.1 | 1.8 | NNW | 35 | 0.8 |
| 25.11.2025 | 09:36 | 4.3 | 92 | 3.1 | 1001.2 | 0.4 | NW | 39 | 0.8 |
| 25.11.2025 | 09:41 | 4.3 | 92 | 3.1 | 1001.3 | 0.9 | WSW | 40 | 0.8 |
| 25.11.2025 | 09:46 | 4.3 | 92 | 3.1 | 1001.4 | 0.4 | NW | 42 | 0.8 |
| 25.11.2025 | 09:51 | 4.3 | 92 | 3.1 | 1001.5 | 1.3 | NNW | 35 | 0.8 |
| 25.11.2025 | 09:56 | 4.3 | 92 | 3.1 | 1001.6 | 0.4 | NW | 39 | 0.8 |
| 25.11.2025 | 10:01 | 4.4 | 92 | 3.2 | 1001.6 | 0.4 | NW | 46 | 0.8 |
| 25.11.2025 | 10:06 | 4.4 | 92 | 3.2 | 1001.7 | 0.9 | NW | 40 | 0.8 |
| 25.11.2025 | 10:11 | 4.4 | 92 | 3.2 | 1001.9 | 1.8 | NW | 46 | 0.8 |
| 25.11.2025 | 10:16 | 4.4 | 92 | 3.2 | 1001.9 | 0.0 | NW | 46 | 0.8 |
| 25.11.2025 | 10:21 | 4.4 | 92 | 3.2 | 1002.0 | 1.3 | NNW | 53 | 0.8 |
| 25.11.2025 | 10:27 | 4.5 | 92 | 3.3 | 1002.1 | 0.4 | NNW | 58 | 0.8 |
| 25.11.2025 | 10:32 | 4.5 | 92 | 3.3 | 1002.2 | 0.9 | NW | 63 | 0.8 |
| 25.11.2025 | 10:37 | 4.5 | 92 | 3.3 | 1002.3 | 1.8 | NW | 54 | 0.8 |
| 25.11.2025 | 10:42 | 4.5 | 92 | 3.3 | 1002.4 | 0.4 | NW | 46 | 0.8 |
| 25.11.2025 | 10:47 | 4.5 | 92 | 3.3 | 1002.5 | 0.4 | WNW | 56 | 0.8 |
| 25.11.2025 | 10:52 | 4.5 | 92 | 3.3 | 1002.6 | 0.4 | NW | 60 | 0.8 |
| 25.11.2025 | 10:57 | 4.5 | 92 | 3.3 | 1002.7 | 0.9 | NW | 79 | 0.8 |
| 25.11.2025 | 11:02 | 4.6 | 92 | 3.4 | 1002.7 | 1.3 | NW | 109 | 0.8 |
| 25.11.2025 | 11:07 | 4.7 | 92 | 3.5 | 1002.8 | 1.3 | NW | 104 | 0.8 |
| 25.11.2025 | 11:12 | 4.8 | 92 | 3.6 | 1002.8 | 0.4 | NW | 105 | 0.8 |
| 25.11.2025 | 11:17 | 4.9 | 92 | 3.7 | 1003.0 | 0.9 | NW | 84 | 0.8 |
| 25.11.2025 | 11:22 | 5.0 | 92 | 3.8 | 1003.0 | 1.3 | NW | 102 | 0.8 |
| 25.11.2025 | 11:27 | 5.0 | 92 | 3.8 | 1002.9 | 0.4 | NW | 109 | 0.8 |
| 25.11.2025 | 11:32 | 5.0 | 92 | 3.8 | 1003.0 | 0.4 | NW | 79 | 0.8 |
| 25.11.2025 | 11:37 | 5.0 | 92 | 3.8 | 1003.1 | 0.4 | NNW | 81 | 0.8 |
| 25.11.2025 | 11:42 | 5.0 | 92 | 3.8 | 1003.0 | 1.3 | NW | 81 | 0.8 |
| 25.11.2025 | 11:47 | 5.0 | 92 | 3.8 | 1003.1 | 0.9 | NNW | 65 | 0.8 |
| 25.11.2025 | 11:52 | 4.9 | 92 | 3.7 | 1003.1 | 0.9 | NW | 69 | 0.8 |
| 25.11.2025 | 11:57 | 4.9 | 92 | 3.7 | 1003.1 | 0.9 | NW | 83 | 0.8 |
| 25.11.2025 | 12:02 | 5.0 | 92 | 3.8 | 1003.2 | 0.9 | NNW | 97 | 0.8 |
| 25.11.2025 | 12:07 | 5.0 | 92 | 3.8 | 1003.2 | 0.9 | NW | 90 | 0.8 |
| 25.11.2025 | 12:12 | 5.0 | 92 | 3.8 | 1003.3 | 0.9 | NNW | 65 | 0.8 |
| 25.11.2025 | 12:17 | 5.0 | 92 | 3.8 | 1003.3 | 0.4 | NW | 60 | 0.8 |
| 25.11.2025 | 12:22 | 5.0 | 92 | 3.8 | 1003.4 | 1.3 | NW | 60 | 0.8 |
| 25.11.2025 | 12:27 | 5.0 | 92 | 3.8 | 1003.4 | 1.8 | NW | 58 | 0.8 |
| 25.11.2025 | 12:32 | 5.0 | 92 | 3.8 | 1003.4 | 0.4 | NW | 67 | 0.8 |
| 25.11.2025 | 12:37 | 4.9 | 92 | 3.7 | 1003.5 | 1.3 | NW | 62 | 0.8 |
| 25.11.2025 | 12:42 | 4.9 | 91 | 3.6 | 1003.5 | 0.4 | NW | 88 | 0.8 |
| 25.11.2025 | 12:47 | 4.9 | 92 | 3.7 | 1003.6 | 0.9 | NW | 77 | 0.8 |
| 25.11.2025 | 12:52 | 4.9 | 91 | 3.6 | 1003.7 | 2.2 | NW | 91 | 0.8 |
| 25.11.2025 | 12:58 | 4.9 | 91 | 3.6 | 1003.7 | 0.9 | NW | 97 | 0.8 |
| 25.11.2025 | 13:03 | 5.0 | 91 | 3.7 | 1003.7 | 0.9 | NNO | 86 | 0.8 |
| 25.11.2025 | 13:08 | 5.0 | 91 | 3.7 | 1003.7 | 0.4 | NW | 70 | 0.8 |
| 25.11.2025 | 13:13 | 5.0 | 91 | 3.7 | 1003.8 | 0.4 | NW | 65 | 0.8 |
| 25.11.2025 | 13:18 | 5.0 | 91 | 3.7 | 1003.9 | 1.3 | NW | 70 | 0.8 |
| 25.11.2025 | 13:23 | 5.0 | 91 | 3.7 | 1003.9 | 1.3 | NNW | 67 | 0.8 |
| 25.11.2025 | 13:28 | 5.0 | 91 | 3.7 | 1004.0 | 0.4 | NW | 54 | 0.8 |
| 25.11.2025 | 13:33 | 5.1 | 91 | 3.8 | 1004.0 | 1.3 | NW | 65 | 0.8 |
| 25.11.2025 | 13:38 | 5.1 | 91 | 3.8 | 1004.0 | 0.9 | NW | 77 | 0.8 |
| 25.11.2025 | 13:43 | 5.1 | 91 | 3.8 | 1004.1 | 1.8 | NW | 76 | 0.8 |
| 25.11.2025 | 13:48 | 5.1 | 91 | 3.8 | 1004.1 | 1.3 | NW | 76 | 0.8 |
| 25.11.2025 | 13:53 | 5.1 | 91 | 3.8 | 1004.2 | 1.3 | NNW | 102 | 0.8 |
| 25.11.2025 | 13:58 | 5.2 | 91 | 3.9 | 1004.3 | 1.3 | NW | 91 | 0.8 |
| 25.11.2025 | 14:03 | 5.2 | 91 | 3.9 | 1004.3 | 0.4 | NW | 65 | 0.8 |
| 25.11.2025 | 14:08 | 5.3 | 91 | 4.0 | 1004.4 | 1.8 | NW | 49 | 0.8 |
| 25.11.2025 | 14:13 | 5.2 | 91 | 3.9 | 1004.4 | 0.9 | NW | 67 | 0.8 |
| 25.11.2025 | 14:18 | 5.2 | 91 | 3.9 | 1004.4 | 1.3 | WNW | 62 | 0.8 |
| 25.11.2025 | 14:23 | 5.1 | 91 | 3.8 | 1004.5 | 0.9 | NW | 74 | 0.8 |
| 25.11.2025 | 14:28 | 5.1 | 90 | 3.6 | 1004.6 | 0.9 | WNW | 116 | 0.8 |
| 25.11.2025 | 14:33 | 5.2 | 91 | 3.9 | 1004.7 | 0.9 | N | 67 | 0.8 |
| 25.11.2025 | 14:38 | 5.2 | 91 | 3.9 | 1004.7 | 0.9 | NNW | 56 | 0.8 |
| 25.11.2025 | 14:43 | 5.1 | 90 | 3.6 | 1004.9 | 1.3 | WNW | 60 | 0.8 |
| 25.11.2025 | 14:48 | 5.1 | 90 | 3.6 | 1004.9 | 0.4 | WNW | 67 | 0.8 |
| 25.11.2025 | 14:53 | 5.1 | 90 | 3.6 | 1005.0 | 1.8 | WNW | 60 | 0.8 |
| 25.11.2025 | 14:58 | 5.1 | 90 | 3.6 | 1005.1 | 2.7 | NW | 54 | 0.8 |
| 25.11.2025 | 15:03 | 5.1 | 90 | 3.6 | 1005.2 | 0.4 | NW | 35 | 0.8 |
| 25.11.2025 | 15:08 | 5.0 | 90 | 3.5 | 1005.3 | 1.3 | NNW | 28 | 0.8 |
| 25.11.2025 | 15:13 | 4.9 | 90 | 3.4 | 1005.4 | 1.3 | N | 25 | 0.8 |
| 25.11.2025 | 15:18 | 4.9 | 90 | 3.4 | 1005.5 | 2.2 | NW | 23 | 0.8 |
| 25.11.2025 | 15:23 | 4.9 | 90 | 3.4 | 1005.5 | 0.9 | WNW | 23 | 0.8 |
| 25.11.2025 | 15:28 | 4.9 | 90 | 3.4 | 1005.5 | 2.7 | WNW | 19 | 0.8 |
| 25.11.2025 | 15:33 | 4.8 | 90 | 3.3 | 1005.6 | 1.3 | NNW | 12 | 0.8 |
| 25.11.2025 | 15:38 | 4.8 | 90 | 3.3 | 1005.8 | 0.9 | NW | 12 | 0.8 |
| 25.11.2025 | 15:43 | 4.8 | 90 | 3.3 | 1005.9 | 2.7 | NW | 14 | 0.8 |
| 25.11.2025 | 15:48 | 4.8 | 90 | 3.3 | 1005.9 | 1.3 | NW | 11 | 0.8 |
| 25.11.2025 | 15:53 | 4.7 | 90 | 3.2 | 1006.0 | 1.3 | NNW | 12 | 0.8 |
| 25.11.2025 | 15:59 | 4.7 | 90 | 3.2 | 1006.0 | 0.4 | NW | 12 | 0.8 |
| 25.11.2025 | 16:04 | 4.7 | 90 | 3.2 | 1006.1 | 1.3 | NW | 14 | 0.8 |
| 25.11.2025 | 16:09 | 4.6 | 90 | 3.1 | 1006.2 | 2.2 | NW | 14 | 0.8 |
| 25.11.2025 | 16:14 | 4.6 | 90 | 3.1 | 1006.3 | 1.3 | NNW | 9 | 0.8 |
| 25.11.2025 | 16:19 | 4.6 | 90 | 3.1 | 1006.4 | 1.8 | NNW | 11 | 0.8 |
| 25.11.2025 | 16:24 | 4.6 | 90 | 3.1 | 1006.4 | 1.8 | NNW | 7 | 0.8 |
| 25.11.2025 | 16:29 | 4.6 | 90 | 3.1 | 1006.5 | 3.1 | WNW | 0 | 0.8 |
| 25.11.2025 | 16:34 | 4.5 | 90 | 3.0 | 1006.6 | 2.2 | NW | 0 | 0.8 |
| 25.11.2025 | 16:39 | 4.5 | 90 | 3.0 | 1006.7 | 1.3 | WNW | 0 | 0.8 |
| 25.11.2025 | 16:44 | 4.5 | 90 | 3.0 | 1006.8 | 0.4 | N | 0 | 0.8 |
| 25.11.2025 | 16:49 | 4.5 | 90 | 3.0 | 1006.8 | 0.9 | NW | 0 | 0.8 |
| 25.11.2025 | 16:54 | 4.4 | 90 | 2.9 | 1006.9 | 1.3 | NW | 0 | 0.8 |
| 25.11.2025 | 16:59 | 4.4 | 90 | 2.9 | 1007.0 | 1.3 | NW | 0 | 0.8 |
| 25.11.2025 | 17:04 | 4.4 | 90 | 2.9 | 1007.1 | 0.4 | NNW | 0 | 0.8 |
| 25.11.2025 | 17:09 | 4.4 | 90 | 2.9 | 1007.1 | 1.3 | NW | 0 | 0.8 |
| 25.11.2025 | 17:14 | 4.3 | 90 | 2.8 | 1007.3 | 1.8 | WNW | 0 | 0.8 |
| 25.11.2025 | 17:19 | 4.3 | 90 | 2.8 | 1007.4 | 0.4 | NW | 0 | 0.8 |
| 25.11.2025 | 17:24 | 4.3 | 90 | 2.8 | 1007.5 | 2.2 | NNW | 0 | 0.8 |
| 25.11.2025 | 17:29 | 4.2 | 90 | 2.7 | 1007.5 | 1.8 | NW | 0 | 0.8 |
| 25.11.2025 | 17:34 | 4.1 | 90 | 2.6 | 1007.7 | 1.3 | NW | 0 | 0.8 |
| 25.11.2025 | 17:39 | 4.1 | 90 | 2.6 | 1007.7 | 0.9 | NW | 0 | 0.8 |
| 25.11.2025 | 17:44 | 4.0 | 90 | 2.5 | 1007.8 | 1.8 | NW | 0 | 0.8 |
| 25.11.2025 | 17:49 | 4.0 | 90 | 2.5 | 1007.8 | 2.2 | NW | 0 | 0.8 |
| 25.11.2025 | 17:54 | 4.0 | 90 | 2.5 | 1007.9 | 0.4 | NW | 0 | 0.8 |
| 25.11.2025 | 17:59 | 4.0 | 90 | 2.5 | 1008.0 | 1.8 | NW | 0 | 0.8 |
| 25.11.2025 | 18:04 | 4.0 | 90 | 2.5 | 1008.1 | 2.7 | NNW | 0 | 0.8 |
| 25.11.2025 | 18:09 | 3.9 | 90 | 2.4 | 1008.2 | 1.8 | WNW | 0 | 0.8 |
| 25.11.2025 | 18:14 | 3.9 | 90 | 2.4 | 1008.3 | 0.4 | NNW | 0 | 0.8 |
| 25.11.2025 | 18:19 | 4.0 | 90 | 2.5 | 1008.4 | 0.9 | NW | 0 | 0.8 |
| 25.11.2025 | 18:24 | 4.0 | 90 | 2.5 | 1008.5 | 1.3 | N | 0 | 0.8 |
| 25.11.2025 | 18:29 | 4.0 | 90 | 2.5 | 1008.6 | 2.7 | NW | 0 | 0.8 |
| 25.11.2025 | 18:34 | 4.0 | 90 | 2.5 | 1008.7 | 0.9 | NW | 0 | 0.8 |
| 25.11.2025 | 18:39 | 4.0 | 90 | 2.5 | 1008.8 | 0.9 | NNW | 0 | 0.8 |
| 25.11.2025 | 18:45 | 4.0 | 90 | 2.5 | 1008.9 | 2.2 | NW | 0 | 0.8 |
| 25.11.2025 | 18:50 | 4.0 | 90 | 2.5 | 1009.0 | 1.8 | NW | 0 | 0.8 |
| 25.11.2025 | 18:55 | 4.0 | 90 | 2.5 | 1009.0 | 1.3 | NW | 0 | 0.8 |
| 25.11.2025 | 19:00 | 4.0 | 90 | 2.5 | 1009.1 | 2.2 | NW | 0 | 0.8 |
| 25.11.2025 | 19:05 | 4.0 | 90 | 2.5 | 1009.2 | 1.3 | WNW | 0 | 0.8 |
| 25.11.2025 | 19:10 | 3.9 | 90 | 2.4 | 1009.2 | 1.3 | NNW | 0 | 0.8 |
| 25.11.2025 | 19:15 | 3.9 | 90 | 2.4 | 1009.3 | 0.9 | NW | 0 | 0.8 |
| 25.11.2025 | 19:20 | 3.9 | 89 | 2.3 | 1009.5 | 0.9 | WNW | 0 | 0.8 |
| 25.11.2025 | 19:25 | 3.9 | 89 | 2.3 | 1009.6 | 1.8 | N | 0 | 0.8 |
| 25.11.2025 | 19:30 | 3.8 | 89 | 2.2 | 1009.6 | 0.4 | NW | 0 | 0.8 |
| 25.11.2025 | 19:35 | 3.8 | 89 | 2.2 | 1009.7 | 2.2 | WNW | 0 | 0.8 |
| 25.11.2025 | 19:40 | 3.8 | 89 | 2.2 | 1009.7 | 1.3 | NNW | 0 | 0.8 |
| 25.11.2025 | 19:45 | 3.8 | 89 | 2.2 | 1009.8 | 0.9 | NW | 0 | 0.8 |
| 25.11.2025 | 19:50 | 3.8 | 89 | 2.2 | 1009.8 | 0.9 | NW | 0 | 0.8 |
| 25.11.2025 | 19:55 | 3.7 | 89 | 2.1 | 1009.9 | 1.3 | NNW | 0 | 0.8 |
| 25.11.2025 | 20:00 | 3.7 | 89 | 2.1 | 1010.0 | 0.4 | NW | 0 | 0.8 |
| 25.11.2025 | 20:05 | 3.7 | 89 | 2.1 | 1010.0 | 0.9 | NW | 0 | 0.8 |
| 25.11.2025 | 20:10 | 3.6 | 89 | 2.0 | 1010.1 | 0.4 | NW | 0 | 0.8 |
| 25.11.2025 | 20:15 | 3.6 | 89 | 2.0 | 1010.2 | 1.3 | NNW | 0 | 0.8 |
| 25.11.2025 | 20:20 | 3.5 | 89 | 1.9 | 1010.3 | 0.9 | NW | 0 | 0.8 |
| 25.11.2025 | 20:25 | 3.5 | 89 | 1.9 | 1010.3 | 0.9 | NW | 0 | 0.8 |
| 25.11.2025 | 20:30 | 3.5 | 90 | 2.0 | 1010.4 | 0.4 | WNW | 0 | 0.8 |
| 25.11.2025 | 20:35 | 3.5 | 90 | 2.0 | 1010.4 | 0.9 | W | 0 | 0.8 |
| 25.11.2025 | 20:40 | 3.6 | 90 | 2.1 | 1010.5 | 1.8 | NW | 0 | 0.8 |
| 25.11.2025 | 20:45 | 3.6 | 90 | 2.1 | 1010.5 | 0.4 | NNW | 0 | 0.8 |
| 25.11.2025 | 20:50 | 3.5 | 90 | 2.0 | 1010.5 | 0.4 | NW | 0 | 0.8 |
| 25.11.2025 | 20:55 | 3.5 | 90 | 2.0 | 1010.5 | 1.3 | NNW | 0 | 0.8 |
| 25.11.2025 | 21:00 | 3.4 | 90 | 1.9 | 1010.6 | 1.8 | NW | 0 | 0.8 |
| 25.11.2025 | 21:05 | 3.4 | 90 | 1.9 | 1010.6 | 0.9 | NW | 0 | 0.8 |
| 25.11.2025 | 21:10 | 3.4 | 90 | 1.9 | 1010.7 | 0.9 | NW | 0 | 0.8 |
| 25.11.2025 | 21:15 | 3.4 | 90 | 1.9 | 1010.7 | 1.3 | NNW | 0 | 0.8 |
| 25.11.2025 | 21:20 | 3.4 | 90 | 1.9 | 1010.8 | 0.4 | NW | 0 | 0.8 |
| 25.11.2025 | 21:25 | 3.4 | 90 | 1.9 | 1010.7 | 0.4 | NW | 0 | 0.8 |
| 25.11.2025 | 21:31 | 3.4 | 90 | 1.9 | 1010.9 | 0.0 | NW | 0 | 0.8 |
| 25.11.2025 | 21:36 | 3.4 | 90 | 1.9 | 1010.9 | 0.4 | NW | 0 | 0.8 |
| 25.11.2025 | 21:41 | 3.3 | 90 | 1.8 | 1010.9 | 0.0 | NW | 0 | 0.8 |
| 25.11.2025 | 21:46 | 3.2 | 90 | 1.7 | 1010.9 | 0.0 | NW | 0 | 0.8 |
| 25.11.2025 | 21:51 | 3.1 | 90 | 1.6 | 1011.0 | 0.9 | NW | 0 | 0.8 |
| 25.11.2025 | 21:56 | 3.0 | 90 | 1.5 | 1011.2 | 0.4 | NW | 0 | 0.8 |
| 25.11.2025 | 22:01 | 3.0 | 90 | 1.5 | 1011.2 | 0.4 | NW | 0 | 0.8 |
| 25.11.2025 | 22:06 | 3.0 | 90 | 1.5 | 1011.2 | 1.3 | NW | 0 | 0.8 |
| 25.11.2025 | 22:11 | 3.0 | 90 | 1.5 | 1011.3 | 0.4 | NW | 0 | 0.8 |
| 25.11.2025 | 22:16 | 2.9 | 90 | 1.4 | 1011.4 | 0.0 | NW | 0 | 0.8 |
| 25.11.2025 | 22:21 | 2.8 | 90 | 1.3 | 1011.5 | 0.0 | NW | 0 | 0.8 |
| 25.11.2025 | 22:26 | 2.7 | 90 | 1.2 | 1011.6 | 0.0 | NW | 0 | 0.8 |
| 25.11.2025 | 22:31 | 2.6 | 90 | 1.1 | 1011.7 | 0.0 | NW | 0 | 0.8 |
| 25.11.2025 | 22:36 | 2.6 | 90 | 1.1 | 1011.6 | 0.4 | NW | 0 | 0.8 |
| 25.11.2025 | 22:41 | 2.6 | 90 | 1.1 | 1011.6 | 0.0 | NW | 0 | 0.8 |
| 25.11.2025 | 22:46 | 2.6 | 90 | 1.1 | 1011.6 | 0.0 | NW | 0 | 0.8 |
| 25.11.2025 | 22:51 | 2.6 | 90 | 1.1 | 1011.7 | 0.0 | NW | 0 | 0.8 |
| 25.11.2025 | 22:56 | 2.6 | 90 | 1.1 | 1011.7 | 0.0 | NW | 0 | 0.8 |
| 25.11.2025 | 23:01 | 2.7 | 90 | 1.2 | 1011.7 | 0.4 | NW | 0 | 0.8 |
| 25.11.2025 | 23:06 | 2.7 | 91 | 1.4 | 1011.7 | 0.0 | NW | 0 | 0.8 |
| 25.11.2025 | 23:11 | 2.8 | 91 | 1.5 | 1011.8 | 0.4 | NW | 0 | 0.8 |
| 25.11.2025 | 23:16 | 2.8 | 91 | 1.5 | 1011.9 | 0.0 | NW | 0 | 0.8 |
| 25.11.2025 | 23:21 | 2.8 | 91 | 1.5 | 1011.9 | 0.0 | NW | 0 | 0.8 |
| 25.11.2025 | 23:26 | 2.9 | 91 | 1.6 | 1012.0 | 0.0 | NW | 0 | 0.8 |
| 25.11.2025 | 23:31 | 2.9 | 91 | 1.6 | 1012.0 | 0.0 | NW | 0 | 0.8 |
| 25.11.2025 | 23:36 | 3.0 | 91 | 1.7 | 1012.1 | 0.0 | NW | 0 | 0.8 |
| 25.11.2025 | 23:41 | 3.0 | 91 | 1.7 | 1012.2 | 0.0 | NW | 0 | 0.8 |
| 25.11.2025 | 23:46 | 3.1 | 91 | 1.8 | 1012.2 | 0.4 | NW | 0 | 0.8 |
| 25.11.2025 | 23:51 | 3.3 | 91 | 2.0 | 1012.3 | 0.9 | NW | 0 | 0.8 |
| 25.11.2025 | 23:56 | 3.4 | 91 | 2.1 | 1012.5 | 0.4 | NW | 0 | 0.8 |